| DS18B20 | SHTC3 | ||||||
|---|---|---|---|---|---|---|---|
| ID | Date d/m/Y & Time | data1 สูง | data2 ต่ำ | data3 นอก | temp pcb | hum pcb | Time |
| 9091 | 05/04/2026 17:41:32 | 31.8  | 31.7  | 31.4  | 31.8  | 62.8  | 17:41 |
| 9090 | 05/04/2026 17:36:51 | 31.8  | 31.8  | 31.4  | 31.8  | 62.8  | 17:36 |
| 9089 | 05/04/2026 17:32:07 | 31.9  | 31.8  | 31.5  | 31.9  | 63.0  | 17:32 |
| 9088 | 05/04/2026 17:27:25 | 31.9  | 31.9  | 31.7  | 31.8  | 63.2  | 17:27 |
| 9087 | 05/04/2026 17:22:43 | 32.0  | 31.9  | 31.7  | 31.8  | 61.8  | 17:22 |
| 9086 | 05/04/2026 17:18:02 | 32.0  | 31.9  | 31.8  | 31.9  | 60.7  | 17:18 |
| 9085 | 05/04/2026 17:13:18 | 32.1  | 31.9  | 31.9  | 31.9  | 60.5  | 17:13 |
| 9084 | 05/04/2026 17:08:36 | 32.2  | 32.1  | 32.0  | 32.1  | 60.8  | 17:08 |
| 9083 | 05/04/2026 17:03:54 | 32.3  | 32.2  | 32.0  | 32.1  | 60.6  | 17:03 |
| 9082 | 05/04/2026 16:59:12 | 32.4  | 32.2  | 32.3  | 32.1  | 62.0  | 16:59 |
| 9081 | 05/04/2026 16:54:30 | 32.6  | 32.4  | 32.4  | 32.3  | 65.0  | 16:54 |
| 9080 | 05/04/2026 16:49:49 | 32.5  | 32.6  | 32.4  | 32.5  | 70.7  | 16:49 |
| 9079 | 05/04/2026 16:45:07 | 32.5  | 32.5  | 32.5  | 32.5  | 70.0  | 16:45 |
| 9078 | 05/04/2026 16:40:25 | 32.4  | 32.4  | 32.6  | 32.4  | 69.2  | 16:40 |
| 9077 | 05/04/2026 16:35:42 | 32.6  | 32.4  | 32.6  | 32.6  | 67.9  | 16:35 |
| 9076 | 05/04/2026 16:30:59 | 32.8  | 32.4  | 32.7  | 32.6  | 66.8  | 16:30 |
| 9075 | 05/04/2026 16:26:17 | 32.8  | 32.4  | 32.9  | 32.6  | 66.6  | 16:26 |
| 9074 | 05/04/2026 16:21:35 | 32.9  | 32.4  | 33.2  | 32.5  | 66.8  | 16:21 |
| 9073 | 05/04/2026 16:16:54 | 32.9  | 32.4  | 33.2  | 32.7  | 67.0  | 16:16 |
| 9072 | 05/04/2026 16:12:13 | 32.9  | 32.4  | 33.2  | 32.6  | 66.8  | 16:12 |
| 9071 | 05/04/2026 16:07:31 | 32.9  | 32.4  | 33.2  | 32.6  | 66.8  | 16:07 |
| 9070 | 05/04/2026 16:02:49 | 33.0  | 32.4  | 33.4  | 32.7  | 66.5  | 16:02 |
| 9069 | 05/04/2026 15:58:07 | 33.0  | 32.4  | 33.4  | 32.8  | 66.3  | 15:58 |
| 9068 | 05/04/2026 15:53:23 | 33.0  | 32.4  | 33.5  | 32.6  | 66.3  | 15:53 |